FW5955 Weather Reports


time (UTC)temp
F
wind
direction
speed
knots
gust
knots
rain 1hr
in
rain 24hr
in
rain mn
in
humidity
%
barometer
mb
20260506211542 48 233 6.1 13.9 0.00 0.00 0.00 85 1016.6
20260506210042 50 247 7.0 15.6 0.00 0.00 0.00 83 1016.2
20260506204551 50 203 8.7 15.6 0.00 0.00 0.00 84 1016.5
20260506203040 50 249 7.8 13.0 0.00 0.00 0.00 83 1016.8
20260506201540 52 186 7.8 15.6 0.00 0.00 0.00 82 1016.8
20260506200044 53 235 11.3 16.5 0.00 0.00 0.00 81 1016.9
20260506194547 53 270 9.6 19.1 0.00 0.00 0.00 81 1017.1
20260506193038 53 240 9.6 18.2 0.00 0.00 0.00 82 1017.1
20260506191537 52 224 12.2 18.2 0.00 0.00 0.00 82 1017.4
20260506190038 52 263 7.8 15.6 0.00 0.00 0.00 83 1017.4
20260506184536 52 217 8.7 19.1 0.00 0.00 0.00 83 1017.5
20260506183040 52 264 11.3 17.4 0.00 0.00 0.00 83 1017.8
20260506181536 53 219 8.7 17.4 0.00 0.00 0.00 82 1018.0
20260506180034 52 228 13.9 20.0 0.00 0.00 0.00 82 1018.1
20260506174533 52 246 11.3 20.0 0.00 0.00 0.00 83 1018.2
20260506173032 53 230 12.2 17.4 0.00 0.00 0.00 83 1018.0
20260506171518 52 236 12.2 19.1 0.00 0.00 0.00 83 1018.1
20260506170009 53 223 12.2 20.0 0.00 0.00 0.00 84 1017.9
20260506164508 52 238 12.2 21.7 0.00 0.00 0.00 85 1018.1
20260506163007 52 237 11.3 20.0 0.00 0.00 0.00 84 1018.0
20260506161506 52 237 13.9 22.6 0.00 0.00 0.00 85 1018.2
20260506160003 53 245 11.3 20.9 0.00 0.00 0.00 85 1018.2
20260506154601 52 220 11.3 20.9 0.00 0.00 0.00 86 1018.4
20260506153100 52 234 12.2 22.6 0.00 0.00 0.00 86 1018.4
20260506151609 51 226 11.3 19.1 0.00 0.00 0.00 87 1018.7
20260506144655 52 264 9.6 20.0 0.00 0.00 0.00 88 1018.6
20260506143057 50 239 9.6 18.2 0.00 0.00 0.00 89 1018.7
20260506141553 50 259 12.2 17.4 0.00 0.00 0.00 89 1018.7
20260506140103 51 204 10.4 18.2 0.00 0.00 0.00 88 1018.7
20260506134551 50 238 11.3 18.2 0.00 0.00 0.00 89 1018.6
20260506133050 49 235 9.6 16.5 0.00 0.00 0.00 90 1018.4
20260506131547 50 248 7.8 14.8 0.00 0.00 0.00 89 1018.3
20260506130058 51 214 11.3 18.2 0.00 0.00 0.00 89 1018.3
20260506124545 52 266 9.6 19.1 0.00 0.00 0.00 88 1018.3
20260506123042 52 255 9.6 17.4 0.00 0.00 0.00 88 1018.2
20260506121540 52 226 11.3 18.2 0.00 0.00 0.00 89 1018.3
20260506120038 51 176 8.7 16.5 0.00 0.00 0.00 90 1018.1
20260506114540 50 226 11.3 17.4 0.00 0.00 0.00 90 1018.0
20260506113030 49 234 8.7 20.0 0.00 0.00 0.00 91 1017.9
20260506111526 49 237 8.7 20.9 0.00 0.00 0.00 91 1018.0
20260506110024 49 249 9.6 18.2 0.00 0.00 0.00 92 1017.9
20260506104520 48 254 8.7 20.9 0.00 0.00 0.00 93 1017.8
20260506103018 47 269 11.3 17.4 0.00 0.00 0.00 93 1017.7
20260506101527 47 232 8.7 16.5 0.00 0.00 0.00 94 1017.7
20260506100013 46 286 10.4 20.9 0.00 0.00 0.00 94 1017.6
20260506094516 46 255 10.4 18.2 0.00 0.00 0.00 94 1017.4
20260506093010 45 235 8.7 15.6 0.00 0.00 0.00 94 1017.2
20260506091508 45 229 9.6 17.4 0.00 0.00 0.00 94 1017.1
20260506090009 46 249 9.6 19.1 0.00 0.00 0.00 94 1016.9
20260506084515 46 286 8.7 20.9 0.00 0.00 0.00 94 1016.7
20260506083002 46 257 10.4 18.2 0.00 0.00 0.00 94 1016.7
20260506081502 46 248 8.7 16.5 0.00 0.00 0.00 94 1016.6
20260506073104 46 257 9.6 17.4 0.00 0.00 0.00 94 1016.7
20260506071609 46 246 7.8 15.6 0.00 0.00 0.00 94 1016.8
20260506061548 46 244 8.7 16.5 0.00 0.00 0.00 94 1016.9
20260506044540 46 222 7.0 16.5 0.00 0.00 0.00 94 1016.9
20260506043039 46 245 7.0 13.0 0.00 0.00 0.00 94 1016.8
20260506041551 46 248 7.8 13.0 0.00 0.00 0.00 94 1016.9
20260506040038 46 259 8.7 17.4 0.00 0.00 0.00 94 1016.8
20260506034534 46 267 7.8 15.6 0.00 0.00 0.00 93 1016.9
20260506033033 46 229 6.1 15.6 0.00 0.00 0.00 93 1016.8
20260506031530 46 243 7.0 14.8 0.00 0.00 0.00 94 1016.6
20260506030031 46 266 7.0 13.9 0.00 0.00 0.00 94 1016.5
20260506024526 45 278 7.0 13.9 0.00 0.00 0.00 94 1016.4
20260506023025 45 259 6.1 13.9 0.00 0.00 0.00 94 1016.3
20260506021525 45 257 7.0 13.9 0.00 0.00 0.00 94 1016.4
20260506020025 45 247 6.1 13.0 0.00 0.00 0.00 94 1016.4
20260506014533 45 238 8.7 15.6 0.00 0.00 0.00 94 1016.5
20260506013028 45 245 8.7 16.5 0.00 0.00 0.00 94 1016.5
20260506011522 45 262 8.7 18.2 0.00 0.00 0.00 93 1016.4
20260506010025 45 268 7.8 18.2 0.00 0.00 0.00 93 1016.1
20260506004528 45 259 7.8 15.6 0.00 0.00 0.00 94 1015.8
20260506003015 46 260 9.6 17.4 0.00 0.00 0.00 94 1015.4
20260506001515 45 243 9.6 15.6 0.00 0.00 0.00 94 1015.3
20260506000018 45 239 8.7 14.8 0.00 0.00 0.00 94 1015.1
20260505234516 46 245 8.7 15.6 0.00 0.00 0.00 93 1015.0
20260505233009 46 284 9.6 17.4 0.00 0.00 0.00 93 1014.7
20260505231509 47 247 10.4 17.4 0.00 0.00 0.00 93 1014.7
20260505230014 47 255 9.6 14.8 0.00 0.00 0.00 93 1014.4
20260505224508 47 249 10.4 19.1 0.00 0.00 0.00 93 1014.3
20260505223009 47 259 11.3 19.1 0.00 0.00 0.00 93 1014.4
20260505221507 48 281 8.7 17.4 0.00 0.00 0.00 93 1014.1
20260505220017 47 243 10.4 17.4 0.00 0.00 0.00 93 1013.9
20260505214512 48 249 10.4 20.9 0.00 0.00 0.00 92 1013.7
20260505213004 48 245 8.7 19.1 0.00 0.00 0.00 92 1013.7